Station Historical Data
Daily Summary for February 26, 2017 Units:  English    Metric   Both
« Previous Day
Next Day »
Daily Weekly Monthly Yearly Custom
  High: Low: Average:
Temperature: 35.9 °F 26.9 °F 30.4 °F
Dew Point: 25.1 °F 15.2 °F 20.2 °F
Humidity: 79% 49% 66%
Wind Speed: 17.0mph 1.0mph 7.3mph
Wind Gust: 26.0mph - -
Wind- - WSW
Pressure: 30.12 in 29.84 in -
Precipitation: 0.00 in    
Historical Graphs
 
 
Tabular Data for February 26, 2017
Time Temperature Dew Point Pressure Wind Wind Speed Wind Gust Humidity Rainfall Rate (Hourly)
00:04 28.7 °F 21.8 °F 29.84 in West 5.0 mph 13.0 mph 75% 0.00 in
00:09 28.6 °F 21.7 °F 29.85 in West 6.0 mph 13.0 mph 75% 0.00 in
00:14 28.7 °F 21.5 °F 29.85 in West 7.0 mph 13.0 mph 74% 0.00 in
00:19 28.6 °F 21.0 °F 29.85 in West 7.0 mph 13.0 mph 73% 0.00 in
00:24 28.6 °F 20.7 °F 29.85 in West 7.0 mph 16.0 mph 72% 0.00 in
00:29 28.6 °F 20.4 °F 29.86 in West 8.0 mph 19.0 mph 71% 0.00 in
00:34 28.6 °F 20.4 °F 29.86 in West 8.0 mph 19.0 mph 71% 0.00 in
00:39 28.5 °F 20.3 °F 29.86 in WSW 10.0 mph 13.0 mph 71% 0.00 in
00:44 28.5 °F 20.0 °F 29.86 in SW 11.0 mph 14.0 mph 70% 0.00 in
00:49 28.4 °F 19.9 °F 29.87 in West 9.0 mph 23.0 mph 70% 0.00 in
00:54 28.3 °F 20.1 °F 29.87 in West 9.0 mph 23.0 mph 71% 0.00 in
00:59 28.3 °F 20.1 °F 29.87 in West 10.0 mph 19.0 mph 71% 0.00 in
01:05 28.2 °F 20.0 °F 29.87 in West 9.0 mph 19.0 mph 71% 0.00 in
01:10 28.2 °F 19.7 °F 29.87 in WNW 4.0 mph 16.0 mph 70% 0.00 in
01:15 28.2 °F 19.7 °F 29.88 in West 6.0 mph 15.0 mph 70% 0.00 in
01:20 28.3 °F 19.8 °F 29.88 in WSW 8.0 mph 13.0 mph 70% 0.00 in
01:25 28.1 °F 19.9 °F 29.88 in West 9.0 mph 18.0 mph 71% 0.00 in
01:30 27.9 °F 20.4 °F 29.88 in West 6.0 mph 15.0 mph 73% 0.00 in
01:35 27.7 °F 20.5 °F 29.88 in NW 10.0 mph 10.0 mph 74% 0.00 in
01:40 27.7 °F 20.5 °F 29.88 in NW 4.0 mph 16.0 mph 74% 0.00 in
01:45 27.6 °F 20.7 °F 29.88 in WSW 8.0 mph 16.0 mph 75% 0.00 in
01:50 27.5 °F 20.6 °F 29.88 in West 7.0 mph 15.0 mph 75% 0.00 in
01:55 27.5 °F 20.6 °F 29.88 in West 7.0 mph 15.0 mph 75% 0.00 in
02:00 27.5 °F 20.3 °F 29.89 in West 8.0 mph 16.0 mph 74% 0.00 in
02:05 27.6 °F 20.4 °F 29.89 in West 8.0 mph 20.0 mph 74% 0.00 in
02:10 27.5 °F 20.3 °F 29.89 in SW 10.0 mph 16.0 mph 74% 0.00 in
02:15 27.5 °F 20.3 °F 29.89 in WSW 1.0 mph 15.0 mph 74% 0.00 in
02:20 27.6 °F 20.1 °F 29.89 in SW 6.0 mph 14.0 mph 73% 0.00 in
02:25 27.7 °F 19.2 °F 29.89 in WSW 9.0 mph 18.0 mph 70% 0.00 in
02:30 27.8 °F 19.3 °F 29.89 in West 10.0 mph 13.0 mph 70% 0.00 in
02:35 27.9 °F 19.4 °F 29.90 in SSW 4.0 mph 16.0 mph 70% 0.00 in
02:40 28.0 °F 19.5 °F 29.90 in SW 8.0 mph 13.0 mph 70% 0.00 in
02:45 28.0 °F 19.5 °F 29.90 in WSW 7.0 mph 16.0 mph 70% 0.00 in
02:50 27.9 °F 19.4 °F 29.90 in WSW 8.0 mph 16.0 mph 70% 0.00 in
02:55 27.9 °F 19.0 °F 29.90 in West 8.0 mph 14.0 mph 69% 0.00 in
03:00 27.8 °F 19.3 °F 29.91 in West 8.0 mph 18.0 mph 70% 0.00 in
03:05 27.8 °F 19.3 °F 29.91 in West 9.0 mph 18.0 mph 70% 0.00 in
03:10 27.6 °F 19.1 °F 29.91 in West 9.0 mph 17.0 mph 70% 0.00 in
03:15 27.4 °F 18.9 °F 29.91 in WNW 7.0 mph 12.0 mph 70% 0.00 in
03:20 27.4 °F 18.9 °F 29.91 in West 7.0 mph 12.0 mph 70% 0.00 in
03:25 27.4 °F 19.2 °F 29.91 in West 7.0 mph 13.0 mph 71% 0.00 in
03:30 27.5 °F 19.3 °F 29.91 in WNW 5.0 mph 10.0 mph 71% 0.00 in
03:35 27.5 °F 19.0 °F 29.92 in West 6.0 mph 14.0 mph 70% 0.00 in
03:40 27.4 °F 18.9 °F 29.92 in West 7.0 mph 17.0 mph 70% 0.00 in
03:45 27.4 °F 18.9 °F 29.92 in SW 9.0 mph 12.0 mph 70% 0.00 in
03:50 27.3 °F 18.8 °F 29.92 in West 8.0 mph 18.0 mph 70% 0.00 in
03:55 27.4 °F 18.9 °F 29.92 in West 9.0 mph 18.0 mph 70% 0.00 in
04:00 27.4 °F 18.6 °F 29.92 in West 8.0 mph 22.0 mph 69% 0.00 in
04:05 27.4 °F 18.6 °F 29.92 in WSW 9.0 mph 15.0 mph 69% 0.00 in
04:10 27.4 °F 18.6 °F 29.92 in SW 7.0 mph 17.0 mph 69% 0.00 in
04:15 27.5 °F 18.7 °F 29.93 in West 11.0 mph 18.0 mph 69% 0.00 in
04:20 27.6 °F 18.8 °F 29.93 in West 8.0 mph 18.0 mph 69% 0.00 in
04:25 27.7 °F 18.8 °F 29.93 in West 7.0 mph 14.0 mph 69% 0.00 in
04:30 27.8 °F 18.6 °F 29.94 in WSW 8.0 mph 13.0 mph 68% 0.00 in
04:35 27.8 °F 18.6 °F 29.94 in West 9.0 mph 16.0 mph 68% 0.00 in
04:39 27.7 °F 18.8 °F 29.94 in NW 11.0 mph 13.0 mph 69% 0.00 in
04:45 27.6 °F 18.4 °F 29.94 in WNW 6.0 mph 16.0 mph 68% 0.00 in
04:50 27.6 °F 18.4 °F 29.95 in WSW 5.0 mph 13.0 mph 68% 0.00 in
04:55 27.6 °F 18.4 °F 29.95 in West 6.0 mph 14.0 mph 68% 0.00 in
05:00 27.6 °F 18.4 °F 29.95 in West 7.0 mph 13.0 mph 68% 0.00 in
05:05 27.6 °F 18.4 °F 29.95 in SW 7.0 mph 15.0 mph 68% 0.00 in
05:10 27.5 °F 18.0 °F 29.95 in WNW 4.0 mph 13.0 mph 67% 0.00 in
05:15 27.6 °F 18.4 °F 29.95 in WSW 6.0 mph 18.0 mph 68% 0.00 in
05:20 27.6 °F 18.1 °F 29.96 in WSW 10.0 mph 18.0 mph 67% 0.00 in
05:24 27.6 °F 18.1 °F 29.96 in West 7.0 mph 18.0 mph 67% 0.00 in
05:30 27.6 °F 18.1 °F 29.97 in West 7.0 mph 15.0 mph 67% 0.00 in
05:35 27.5 °F 18.3 °F 29.97 in West 6.0 mph 15.0 mph 68% 0.00 in
05:40 27.5 °F 18.3 °F 29.97 in West 8.0 mph 18.0 mph 68% 0.00 in
05:44 27.4 °F 18.6 °F 29.98 in West 6.0 mph 13.0 mph 69% 0.00 in
05:49 27.3 °F 18.5 °F 29.98 in WNW 4.0 mph 10.0 mph 69% 0.00 in
05:55 27.4 °F 18.9 °F 29.98 in West 6.0 mph 16.0 mph 70% 0.00 in
06:00 27.3 °F 18.8 °F 29.98 in West 5.0 mph 15.0 mph 70% 0.00 in
06:05 27.4 °F 18.9 °F 29.98 in WSW 5.0 mph 13.0 mph 70% 0.00 in
06:10 27.3 °F 19.1 °F 29.98 in WSW 3.0 mph 11.0 mph 71% 0.00 in
06:15 27.3 °F 19.1 °F 29.99 in SSW 4.0 mph 17.0 mph 71% 0.00 in
06:19 27.3 °F 18.8 °F 29.99 in West 6.0 mph 17.0 mph 70% 0.00 in
06:25 27.3 °F 19.1 °F 29.99 in West 6.0 mph 15.0 mph 71% 0.00 in
06:30 27.3 °F 19.1 °F 30.00 in West 6.0 mph 15.0 mph 71% 0.00 in
06:35 27.2 °F 19.0 °F 30.00 in West 6.0 mph 14.0 mph 71% 0.00 in
06:40 27.2 °F 19.0 °F 30.00 in West 6.0 mph 12.0 mph 71% 0.00 in
06:44 27.2 °F 19.0 °F 30.00 in West 7.0 mph 13.0 mph 71% 0.00 in
06:49 27.1 °F 18.9 °F 30.00 in West 7.0 mph 13.0 mph 71% 0.00 in
06:54 27.0 °F 19.2 °F 30.00 in West 7.0 mph 15.0 mph 72% 0.00 in
07:00 26.9 °F 19.1 °F 30.01 in West 10.0 mph 12.0 mph 72% 0.00 in
07:05 26.9 °F 19.1 °F 30.01 in West 6.0 mph 12.0 mph 72% 0.00 in
07:10 27.0 °F 19.2 °F 30.01 in West 6.0 mph 11.0 mph 72% 0.00 in
07:15 27.0 °F 19.5 °F 30.01 in West 5.0 mph 10.0 mph 73% 0.00 in
07:20 27.0 °F 19.5 °F 30.02 in WSW 5.0 mph 16.0 mph 73% 0.00 in
07:24 27.1 °F 19.6 °F 30.02 in West 7.0 mph 16.0 mph 73% 0.00 in
07:30 27.0 °F 19.5 °F 30.03 in West 7.0 mph 15.0 mph 73% 0.00 in
07:35 27.1 °F 19.6 °F 30.03 in West 6.0 mph 15.0 mph 73% 0.00 in
07:40 27.0 °F 19.5 °F 30.03 in West 6.0 mph 13.0 mph 73% 0.00 in
07:45 27.0 °F 19.8 °F 30.03 in West 6.0 mph 13.0 mph 74% 0.00 in
07:49 27.2 °F 19.7 °F 30.03 in WSW 2.0 mph 10.0 mph 73% 0.00 in
07:54 27.2 °F 20.0 °F 30.04 in WNW 5.0 mph 10.0 mph 74% 0.00 in
07:59 27.3 °F 19.8 °F 30.04 in West 5.0 mph 12.0 mph 73% 0.00 in
08:04 27.3 °F 19.5 °F 30.05 in West 11.0 mph 16.0 mph 72% 0.00 in
08:09 27.4 °F 19.6 °F 30.05 in West 10.0 mph 11.0 mph 72% 0.00 in
08:14 27.4 °F 19.6 °F 30.05 in WSW 4.0 mph 12.0 mph 72% 0.00 in
08:19 27.5 °F 20.0 °F 30.05 in WSW 4.0 mph 10.0 mph 73% 0.00 in
08:24 27.5 °F 19.7 °F 30.06 in West 5.0 mph 12.0 mph 72% 0.00 in
08:29 27.6 °F 19.8 °F 30.06 in West 6.0 mph 13.0 mph 72% 0.00 in
08:35 27.7 °F 19.5 °F 30.06 in West 7.0 mph 14.0 mph 71% 0.00 in
08:40 27.8 °F 19.3 °F 30.06 in West 3.0 mph 10.0 mph 70% 0.00 in
08:45 27.9 °F 19.7 °F 30.06 in West 6.0 mph 12.0 mph 71% 0.00 in
08:50 28.0 °F 19.1 °F 30.06 in West 10.0 mph 14.0 mph 69% 0.00 in
08:54 28.0 °F 19.5 °F 30.07 in West 7.0 mph 15.0 mph 70% 0.00 in
08:59 28.2 °F 19.7 °F 30.07 in West 8.0 mph 15.0 mph 70% 0.00 in
09:04 28.5 °F 20.0 °F 30.07 in West 5.0 mph 11.0 mph 70% 0.00 in
09:14 28.5 °F 19.6 °F 30.07 in West 10.0 mph 14.0 mph 69% 0.00 in
09:19 28.7 °F 19.8 °F 30.07 in WNW 6.0 mph 13.0 mph 69% 0.00 in
09:24 29.0 °F 19.8 °F 30.07 in West 10.0 mph 14.0 mph 68% 0.00 in
09:29 29.5 °F 20.6 °F 30.07 in West 7.0 mph 14.0 mph 69% 0.00 in
09:34 29.7 °F 20.4 °F 30.07 in WNW 7.0 mph 13.0 mph 68% 0.00 in
09:39 29.7 °F 20.4 °F 30.07 in West 3.0 mph 12.0 mph 68% 0.00 in
09:44 29.9 °F 19.9 °F 30.07 in WSW 5.0 mph 12.0 mph 66% 0.00 in
09:50 29.9 °F 18.8 °F 30.08 in West 8.0 mph 15.0 mph 63% 0.00 in
09:55 30.0 °F 18.9 °F 30.08 in WNW 6.0 mph 15.0 mph 63% 0.00 in
09:59 30.3 °F 19.2 °F 30.08 in West 7.0 mph 15.0 mph 63% 0.00 in
10:04 30.3 °F 18.8 °F 30.08 in West 8.0 mph 14.0 mph 62% 0.00 in
10:10 30.7 °F 19.2 °F 30.08 in West 7.0 mph 14.0 mph 62% 0.00 in
10:15 31.1 °F 19.2 °F 30.08 in West 7.0 mph 13.0 mph 61% 0.00 in
10:19 31.1 °F 18.8 °F 30.08 in WNW 9.0 mph 17.0 mph 60% 0.00 in
10:24 31.3 °F 17.8 °F 30.08 in West 5.0 mph 13.0 mph 57% 0.00 in
10:29 31.2 °F 17.3 °F 30.08 in WSW 7.0 mph 14.0 mph 56% 0.00 in
10:34 31.2 °F 16.9 °F 30.08 in SW 5.0 mph 14.0 mph 55% 0.00 in
10:39 31.4 °F 16.2 °F 30.08 in West 12.0 mph 14.0 mph 53% 0.00 in
10:44 31.5 °F 16.3 °F 30.08 in West 10.0 mph 12.0 mph 53% 0.00 in
10:49 31.8 °F 17.0 °F 30.08 in WSW 4.0 mph 11.0 mph 54% 0.00 in
10:54 33.3 °F 18.9 °F 30.08 in WSW 11.0 mph 13.0 mph 55% 0.00 in
10:59 32.2 °F 17.4 °F 30.09 in WSW 8.0 mph 17.0 mph 54% 0.00 in
11:04 32.1 °F 16.9 °F 30.09 in WSW 10.0 mph 17.0 mph 53% 0.00 in
11:09 32.2 °F 15.2 °F 30.09 in WSW 9.0 mph 16.0 mph 49% 0.00 in
11:19 31.8 °F 15.3 °F 30.10 in WSW 8.0 mph 16.0 mph 50% 0.00 in
11:24 31.7 °F 16.5 °F 30.10 in WNW 13.0 mph 17.0 mph 53% 0.00 in
11:29 32.1 °F 16.4 °F 30.10 in West 7.0 mph 17.0 mph 52% 0.00 in
11:34 31.4 °F 16.7 °F 30.10 in West 9.0 mph 17.0 mph 54% 0.00 in
11:39 32.2 °F 17.8 °F 30.10 in SSW 5.0 mph 13.0 mph 55% 0.00 in
11:44 31.4 °F 16.7 °F 30.11 in SW 9.0 mph 20.0 mph 54% 0.00 in
11:49 31.1 °F 16.8 °F 30.11 in WSW 16.0 mph 18.0 mph 55% 0.00 in
11:54 30.7 °F 16.8 °F 30.11 in WSW 5.0 mph 22.0 mph 56% 0.00 in
11:59 30.8 °F 16.5 °F 30.11 in SW 11.0 mph 20.0 mph 55% 0.00 in
12:04 31.1 °F 16.8 °F 30.11 in WSW 11.0 mph 20.0 mph 55% 0.00 in
12:09 31.1 °F 16.8 °F 30.11 in WSW 11.0 mph 20.0 mph 55% 0.00 in
12:14 31.6 °F 17.7 °F 30.11 in WSW 10.0 mph 21.0 mph 56% 0.00 in
12:20 31.6 °F 17.3 °F 30.11 in WSW 10.0 mph 21.0 mph 55% 0.00 in
12:25 31.0 °F 18.3 °F 30.11 in South 14.0 mph 19.0 mph 59% 0.00 in
12:30 31.3 °F 18.2 °F 30.11 in SW 14.0 mph 19.0 mph 58% 0.00 in
12:34 30.9 °F 17.4 °F 30.11 in WSW 10.0 mph 19.0 mph 57% 0.00 in
12:39 31.0 °F 17.9 °F 30.11 in SW 13.0 mph 20.0 mph 58% 0.00 in
12:44 31.1 °F 17.6 °F 30.11 in SSW 10.0 mph 20.0 mph 57% 0.00 in
12:49 31.6 °F 18.1 °F 30.10 in WSW 7.0 mph 22.0 mph 57% 0.00 in
12:54 32.6 °F 18.2 °F 30.11 in WSW 6.0 mph 20.0 mph 55% 0.00 in
12:59 32.5 °F 18.9 °F 30.10 in WSW 13.0 mph 18.0 mph 57% 0.00 in
13:04 33.3 °F 19.3 °F 30.10 in WSW 9.0 mph 18.0 mph 56% 0.00 in
13:09 34.0 °F 19.1 °F 30.10 in WSW 9.0 mph 20.0 mph 54% 0.00 in
13:14 33.0 °F 20.2 °F 30.10 in WSW 9.0 mph 20.0 mph 59% 0.00 in
13:19 32.2 °F 18.7 °F 30.10 in SSW 10.0 mph 21.0 mph 57% 0.00 in
13:25 32.4 °F 19.3 °F 30.10 in SW 11.0 mph 21.0 mph 58% 0.00 in
13:30 32.9 °F 19.7 °F 30.10 in SW 10.0 mph 17.0 mph 58% 0.00 in
13:34 32.0 °F 19.7 °F 30.10 in SW 10.0 mph 19.0 mph 60% 0.00 in
13:39 31.8 °F 19.9 °F 30.10 in WSW 11.0 mph 19.0 mph 61% 0.00 in
13:44 32.6 °F 21.0 °F 30.10 in West 6.0 mph 19.0 mph 62% 0.00 in
13:49 33.3 °F 21.3 °F 30.10 in WSW 6.0 mph 18.0 mph 61% 0.00 in
13:54 33.3 °F 20.9 °F 30.10 in West 5.0 mph 17.0 mph 60% 0.00 in
13:59 32.5 °F 21.3 °F 30.11 in SW 14.0 mph 20.0 mph 63% 0.00 in
14:04 31.7 °F 20.2 °F 30.11 in WSW 14.0 mph 20.0 mph 62% 0.00 in
14:09 31.1 °F 19.6 °F 30.11 in West 7.0 mph 20.0 mph 62% 0.00 in
14:14 31.3 °F 20.5 °F 30.11 in WSW 11.0 mph 20.0 mph 64% 0.00 in
14:19 31.2 °F 20.8 °F 30.11 in WSW 10.0 mph 15.0 mph 65% 0.00 in
14:24 31.7 °F 20.9 °F 30.11 in West 8.0 mph 18.0 mph 64% 0.00 in
14:29 31.4 °F 20.6 °F 30.11 in WNW 17.0 mph 20.0 mph 64% 0.00 in
14:34 31.2 °F 20.8 °F 30.11 in WSW 11.0 mph 17.0 mph 65% 0.00 in
14:39 31.0 °F 21.0 °F 30.11 in WSW 9.0 mph 17.0 mph 66% 0.00 in
14:44 31.2 °F 21.2 °F 30.11 in WSW 10.0 mph 23.0 mph 66% 0.00 in
14:49 31.5 °F 20.7 °F 30.12 in WSW 11.0 mph 26.0 mph 64% 0.00 in
14:54 31.5 °F 20.7 °F 30.11 in WSW 10.0 mph 26.0 mph 64% 0.00 in
14:59 31.3 °F 20.9 °F 30.11 in WSW 10.0 mph 21.0 mph 65% 0.00 in
15:04 31.3 °F 21.3 °F 30.11 in WSW 9.0 mph 19.0 mph 66% 0.00 in
15:10 31.1 °F 21.1 °F 30.11 in SW 12.0 mph 20.0 mph 66% 0.00 in
15:14 31.6 °F 21.9 °F 30.11 in SSW 5.0 mph 17.0 mph 67% 0.00 in
15:19 31.9 °F 20.7 °F 30.11 in SW 6.0 mph 20.0 mph 63% 0.00 in
15:24 31.5 °F 20.7 °F 30.11 in SSW 16.0 mph 21.0 mph 64% 0.00 in
15:29 31.4 °F 20.6 °F 30.11 in South 10.0 mph 18.0 mph 64% 0.00 in
15:34 32.3 °F 21.5 °F 30.11 in SSE 13.0 mph 18.0 mph 64% 0.00 in
15:39 32.3 °F 21.5 °F 30.10 in SW 8.0 mph 19.0 mph 64% 0.00 in
15:44 32.3 °F 21.5 °F 30.10 in SW 10.0 mph 18.0 mph 64% 0.00 in
15:49 31.8 °F 21.0 °F 30.10 in WSW 11.0 mph 22.0 mph 64% 0.00 in
15:54 31.7 °F 21.3 °F 30.10 in WSW 12.0 mph 22.0 mph 65% 0.00 in
15:59 31.9 °F 21.8 °F 30.10 in WSW 11.0 mph 22.0 mph 66% 0.00 in
16:04 31.8 °F 21.4 °F 30.10 in WSW 11.0 mph 22.0 mph 65% 0.00 in
16:09 32.1 °F 22.0 °F 30.10 in SW 8.0 mph 17.0 mph 66% 0.00 in
16:14 32.4 °F 22.7 °F 30.10 in WNW 5.0 mph 13.0 mph 67% 0.00 in
16:19 32.1 °F 22.0 °F 30.10 in SSW 10.0 mph 20.0 mph 66% 0.00 in
16:24 32.0 °F 21.9 °F 30.09 in SW 9.0 mph 20.0 mph 66% 0.00 in
16:29 32.2 °F 22.5 °F 30.09 in SW 9.0 mph 18.0 mph 67% 0.00 in
16:34 32.3 °F 22.6 °F 30.09 in SW 8.0 mph 17.0 mph 67% 0.00 in
16:39 32.0 °F 22.6 °F 30.09 in West 5.0 mph 17.0 mph 68% 0.00 in
16:44 32.1 °F 23.1 °F 30.09 in West 9.0 mph 13.0 mph 69% 0.00 in
16:49 32.0 °F 23.0 °F 30.10 in SW 14.0 mph 15.0 mph 69% 0.00 in
16:54 31.6 °F 22.9 °F 30.10 in SW 8.0 mph 16.0 mph 70% 0.00 in
16:59 31.5 °F 23.2 °F 30.09 in SW 9.0 mph 18.0 mph 71% 0.00 in
17:04 31.4 °F 23.1 °F 30.09 in SW 8.0 mph 15.0 mph 71% 0.00 in
17:09 31.5 °F 23.5 °F 30.09 in WSW 7.0 mph 13.0 mph 72% 0.00 in
17:14 31.4 °F 23.4 °F 30.09 in WSW 6.0 mph 14.0 mph 72% 0.00 in
17:19 31.2 °F 23.2 °F 30.09 in WSW 5.0 mph 15.0 mph 72% 0.00 in
17:24 31.2 °F 23.5 °F 30.09 in SW 8.0 mph 15.0 mph 73% 0.00 in
17:29 31.1 °F 23.5 °F 30.09 in SW 8.0 mph 16.0 mph 73% 0.00 in
17:34 31.0 °F 23.7 °F 30.09 in SW 8.0 mph 16.0 mph 74% 0.00 in
17:39 30.9 °F 23.6 °F 30.09 in SSW 6.0 mph 10.0 mph 74% 0.00 in
17:44 30.8 °F 23.5 °F 30.09 in WSW 7.0 mph 11.0 mph 74% 0.00 in
17:49 30.8 °F 23.8 °F 30.09 in SW 8.0 mph 13.0 mph 75% 0.00 in
17:54 30.8 °F 23.8 °F 30.10 in SW 8.0 mph 13.0 mph 75% 0.00 in
17:59 30.7 °F 23.7 °F 30.10 in SW 8.0 mph 13.0 mph 75% 0.00 in
18:04 30.7 °F 23.7 °F 30.10 in WSW 6.0 mph 13.0 mph 75% 0.00 in
18:09 30.6 °F 23.9 °F 30.10 in WSW 5.0 mph 14.0 mph 76% 0.00 in
18:14 30.6 °F 23.9 °F 30.10 in SSW 3.0 mph 10.0 mph 76% 0.00 in
18:19 30.6 °F 24.2 °F 30.10 in SW 8.0 mph 11.0 mph 77% 0.00 in
18:24 30.6 °F 24.2 °F 30.10 in SW 9.0 mph 10.0 mph 77% 0.00 in
18:34 30.7 °F 24.3 °F 30.10 in SW 5.0 mph 12.0 mph 77% 0.00 in
18:39 30.7 °F 24.3 °F 30.10 in SW 5.0 mph 10.0 mph 77% 0.00 in
18:44 30.7 °F 24.7 °F 30.10 in SW 5.0 mph 10.0 mph 78% 0.00 in
18:49 30.7 °F 24.7 °F 30.10 in SSW 4.0 mph 9.0 mph 78% 0.00 in
18:54 30.6 °F 24.6 °F 30.09 in SSW 7.0 mph 7.0 mph 78% 0.00 in
18:59 30.8 °F 25.1 °F 30.09 in South 4.0 mph 8.0 mph 79% 0.00 in
19:04 30.7 °F 25.0 °F 30.10 in SSW 5.0 mph 7.0 mph 79% 0.00 in
19:09 30.7 °F 25.0 °F 30.10 in SSW 3.0 mph 7.0 mph 79% 0.00 in
19:14 30.7 °F 25.0 °F 30.10 in SSW 1.0 mph 7.0 mph 79% 0.00 in
19:19 30.7 °F 24.7 °F 30.10 in SSW 1.0 mph 7.0 mph 78% 0.00 in
19:24 30.7 °F 24.7 °F 30.10 in SSW 3.0 mph 6.0 mph 78% 0.00 in
19:29 30.7 °F 24.3 °F 30.09 in South 3.0 mph 7.0 mph 77% 0.00 in
19:34 30.6 °F 23.6 °F 30.09 in South 5.0 mph 9.0 mph 75% 0.00 in
19:39 30.6 °F 23.3 °F 30.09 in South 4.0 mph 9.0 mph 74% 0.00 in
19:44 30.6 °F 23.0 °F 30.08 in South 5.0 mph 7.0 mph 73% 0.00 in
19:49 30.4 °F 22.8 °F 30.09 in South 4.0 mph 7.0 mph 73% 0.00 in
19:54 30.7 °F 22.4 °F 30.09 in SSW 3.0 mph 9.0 mph 71% 0.00 in
19:59 31.2 °F 21.9 °F 30.09 in South 4.0 mph 8.0 mph 68% 0.00 in
20:04 31.6 °F 21.9 °F 30.09 in SSW 5.0 mph 12.0 mph 67% 0.00 in
20:09 32.0 °F 21.6 °F 30.09 in SSW 8.0 mph 10.0 mph 65% 0.00 in
20:14 32.4 °F 21.2 °F 30.09 in South 6.0 mph 12.0 mph 63% 0.00 in
20:19 32.7 °F 21.1 °F 30.08 in SSW 4.0 mph 13.0 mph 62% 0.00 in
20:24 32.9 °F 20.9 °F 30.09 in South 6.0 mph 12.0 mph 61% 0.00 in
20:29 33.0 °F 20.6 °F 30.09 in SSW 6.0 mph 13.0 mph 60% 0.00 in
20:34 33.1 °F 20.7 °F 30.09 in SSW 6.0 mph 13.0 mph 60% 0.00 in
20:39 33.1 °F 20.3 °F 30.09 in SSW 5.0 mph 12.0 mph 59% 0.00 in
20:44 33.2 °F 20.4 °F 30.10 in SSW 6.0 mph 12.0 mph 59% 0.00 in
20:49 33.2 °F 20.4 °F 30.10 in SSW 6.0 mph 12.0 mph 59% 0.00 in
20:54 33.3 °F 20.1 °F 30.10 in SSW 6.0 mph 12.0 mph 58% 0.00 in
20:59 33.3 °F 20.5 °F 30.10 in SSW 6.0 mph 13.0 mph 59% 0.00 in
21:04 33.4 °F 20.2 °F 30.10 in West 7.0 mph 10.0 mph 58% 0.00 in
21:09 33.5 °F 20.3 °F 30.10 in South 6.0 mph 15.0 mph 58% 0.00 in
21:14 33.5 °F 20.3 °F 30.11 in South 9.0 mph 12.0 mph 58% 0.00 in
21:19 33.5 °F 20.7 °F 30.11 in WSW 6.0 mph 12.0 mph 59% 0.00 in
21:24 33.4 °F 20.6 °F 30.11 in SSW 7.0 mph 11.0 mph 59% 0.00 in
21:29 33.4 °F 20.6 °F 30.11 in SSW 6.0 mph 16.0 mph 59% 0.00 in
21:34 33.4 °F 20.6 °F 30.11 in SSW 5.0 mph 16.0 mph 59% 0.00 in
21:39 33.4 °F 20.6 °F 30.11 in SSW 5.0 mph 11.0 mph 59% 0.00 in
21:44 33.4 °F 20.6 °F 30.11 in SSW 5.0 mph 11.0 mph 59% 0.00 in
21:49 33.3 °F 20.5 °F 30.11 in SW 10.0 mph 11.0 mph 59% 0.00 in
21:54 33.4 °F 20.6 °F 30.11 in SSW 9.0 mph 12.0 mph 59% 0.00 in
21:59 33.4 °F 20.6 °F 30.11 in SSW 5.0 mph 12.0 mph 59% 0.00 in
22:04 33.4 °F 20.6 °F 30.11 in SSW 5.0 mph 10.0 mph 59% 0.00 in
22:09 33.5 °F 20.7 °F 30.11 in South 7.0 mph 11.0 mph 59% 0.00 in
22:14 33.7 °F 20.5 °F 30.11 in WSW 7.0 mph 14.0 mph 58% 0.00 in
22:19 33.7 °F 20.5 °F 30.11 in SW 4.0 mph 9.0 mph 58% 0.00 in
22:24 33.9 °F 20.7 °F 30.12 in SW 8.0 mph 13.0 mph 58% 0.00 in
22:29 34.0 °F 20.3 °F 30.12 in SW 6.0 mph 13.0 mph 57% 0.00 in
22:34 34.2 °F 20.5 °F 30.11 in SW 6.0 mph 13.0 mph 57% 0.00 in
22:39 34.3 °F 20.6 °F 30.11 in WSW 4.0 mph 11.0 mph 57% 0.00 in
22:44 34.2 °F 20.5 °F 30.11 in SSW 5.0 mph 11.0 mph 57% 0.00 in
22:49 34.3 °F 20.6 °F 30.11 in WSW 6.0 mph 10.0 mph 57% 0.00 in
22:54 34.4 °F 20.7 °F 30.12 in SW 6.0 mph 12.0 mph 57% 0.00 in
22:59 34.6 °F 20.9 °F 30.12 in SSW 5.0 mph 12.0 mph 57% 0.00 in
23:04 34.8 °F 21.1 °F 30.12 in SSW 5.0 mph 11.0 mph 57% 0.00 in
23:09 35.1 °F 21.0 °F 30.12 in SSW 5.0 mph 11.0 mph 56% 0.00 in
23:14 35.4 °F 21.2 °F 30.12 in SSW 6.0 mph 10.0 mph 56% 0.00 in
23:19 35.6 °F 21.0 °F 30.12 in WSW 5.0 mph 9.0 mph 55% 0.00 in
23:24 35.6 °F 21.0 °F 30.11 in SSW 5.0 mph 10.0 mph 55% 0.00 in
23:29 35.6 °F 21.0 °F 30.12 in SSW 5.0 mph 13.0 mph 55% 0.00 in
23:34 35.9 °F 20.9 °F 30.12 in SSW 7.0 mph 14.0 mph 54% 0.00 in
23:39 35.9 °F 20.9 °F 30.12 in SSW 7.0 mph 16.0 mph 54% 0.00 in
23:44 35.7 °F 20.7 °F 30.12 in WSW 7.0 mph 12.0 mph 54% 0.00 in
23:49 35.7 °F 21.1 °F 30.12 in WSW 3.0 mph 11.0 mph 55% 0.00 in
23:54 35.6 °F 20.6 °F 30.12 in SSW 6.0 mph 12.0 mph 54% 0.00 in
23:59 35.7 °F 20.7 °F 30.12 in SSW 6.0 mph 12.0 mph 54% 0.00 in
Buffalo, New York, USA
Compliments of Weather Underground - 2.5 mb